| time (UTC) | temp F | wind direction | speed knots | gust knots | rain 1hr in | rain 24hr in | rain mn in | humidity % | barometer mb |
| 20260505211557 | 74 | 53 | 7.0 | 10.4 | 0.00 | 0.00 | 0.00 | 32 | 1008.1 |
| 20260505210048 | 74 | 276 | 2.6 | 6.1 | 0.00 | 0.00 | 0.00 | 31 | 1008.1 |
| 20260505204548 | 74 | 290 | 3.5 | 6.1 | 0.00 | 0.00 | 0.00 | 32 | 1008.1 |
| 20260505203048 | 75 | 283 | 0.9 | 8.7 | 0.00 | 0.00 | 0.00 | 31 | 1008.2 |
| 20260505201545 | 75 | 255 | 2.6 | 7.0 | 0.00 | 0.00 | 0.00 | 30 | 1008.3 |
| 20260505200043 | 74 | 30 | 0.9 | 5.2 | 0.00 | 0.00 | 0.00 | 31 | 1008.4 |
| 20260505194544 | 74 | 285 | 3.5 | 6.1 | 0.00 | 0.00 | 0.00 | 31 | 1008.5 |
| 20260505193044 | 74 | 295 | 4.3 | 7.8 | 0.00 | 0.00 | 0.00 | 31 | 1008.6 |
| 20260505191550 | 74 | 45 | 2.6 | 8.7 | 0.00 | 0.00 | 0.00 | 32 | 1008.7 |
| 20260505190038 | 75 | 280 | 2.6 | 6.1 | 0.00 | 0.00 | 0.00 | 30 | 1008.9 |
| 20260505184532 | 73 | 231 | 1.7 | 3.5 | 0.00 | 0.00 | 0.00 | 29 | 1008.9 |
| 20260505183030 | 72 | 272 | 0.9 | 4.3 | 0.00 | 0.00 | 0.00 | 30 | 1009.0 |
| 20260505181527 | 71 | 274 | 1.7 | 3.5 | 0.00 | 0.00 | 0.00 | 35 | 1009.0 |
| 20260505180037 | 69 | 264 | 0.9 | 4.3 | 0.00 | 0.00 | 0.00 | 39 | 1009.1 |
| 20260505174620 | 67 | 47 | 0.9 | 3.5 | 0.00 | 0.00 | 0.00 | 48 | 1009.1 |
| 20260505173016 | 65 | 328 | 0.0 | 3.5 | 0.00 | 0.00 | 0.00 | 54 | 1009.3 |
| 20260505171515 | 64 | 288 | 0.9 | 2.6 | 0.00 | 0.00 | 0.00 | 56 | 1009.4 |
| 20260505170022 | 62 | 278 | 0.0 | 3.5 | 0.00 | 0.00 | 0.00 | 57 | 1009.5 |
| 20260505164507 | 61 | 306 | 0.9 | 3.5 | 0.00 | 0.00 | 0.00 | 58 | 1009.6 |
| 20260505163005 | 58 | 264 | 0.9 | 2.6 | 0.00 | 0.00 | 0.00 | 63 | 1009.7 |
| 20260505161502 | 57 | 288 | 0.0 | 2.6 | 0.00 | 0.00 | 0.00 | 64 | 1009.8 |
| 20260505153058 | 53 | 298 | 0.9 | 3.5 | 0.00 | 0.00 | 0.00 | 70 | 1010.2 |
| 20260505151553 | 52 | 59 | 0.0 | 1.7 | 0.00 | 0.00 | 0.00 | 70 | 1010.2 |
| 20260505124535 | 38 | 104 | 0.0 | 0.9 | 0.00 | 0.00 | 0.00 | 92 | 1009.5 |
| 20260505123051 | 38 | 103 | 0.0 | 0.9 | 0.00 | 0.00 | 0.00 | 90 | 1009.3 |
| 20260505121530 | 38 | 78 | 0.0 | 0.0 | 0.00 | 0.00 | 0.00 | 90 | 1009.1 |
| 20260505120030 | 38 | 78 | 0.0 | 0.9 | 0.00 | 0.00 | 0.00 | 89 | 1009.0 |
| 20260505114525 | 39 | 212 | 0.0 | 0.9 | 0.00 | 0.00 | 0.00 | 89 | 1008.8 |
| 20260505111531 | 39 | 167 | 0.0 | 0.0 | 0.00 | 0.00 | 0.00 | 89 | 1008.8 |
| 20260505101510 | 41 | 110 | 0.0 | 0.9 | 0.00 | 0.00 | 0.00 | 88 | 1008.3 |
| 20260505100009 | 41 | 135 | 0.0 | 0.9 | 0.00 | 0.00 | 0.00 | 86 | 1008.3 |
| 20260505094507 | 42 | 146 | 0.0 | 0.9 | 0.00 | 0.00 | 0.00 | 86 | 1008.1 |
| 20260505093003 | 43 | 146 | 0.0 | 0.9 | 0.00 | 0.00 | 0.00 | 85 | 1008.0 |
| 20260505091601 | 43 | 130 | 0.0 | 0.9 | 0.00 | 0.00 | 0.00 | 86 | 1008.0 |
| 20260505090100 | 43 | 117 | 0.0 | 1.7 | 0.00 | 0.00 | 0.00 | 85 | 1007.8 |
| 20260505084555 | 43 | 80 | 0.0 | 0.9 | 0.00 | 0.00 | 0.00 | 84 | 1007.8 |
| 20260505083102 | 44 | 82 | 0.0 | 0.9 | 0.00 | 0.00 | 0.00 | 83 | 1007.6 |
| 20260505081555 | 45 | 103 | 0.0 | 0.9 | 0.00 | 0.00 | 0.00 | 82 | 1007.7 |
| 20260505080052 | 45 | 120 | 0.0 | 0.9 | 0.00 | 0.00 | 0.00 | 82 | 1007.7 |
| 20260505074548 | 45 | 139 | 0.0 | 2.6 | 0.00 | 0.00 | 0.00 | 81 | 1007.7 |
| 20260505073043 | 47 | 100 | 1.7 | 3.5 | 0.00 | 0.00 | 0.00 | 79 | 1007.5 |
| 20260505071542 | 47 | 214 | 0.0 | 4.3 | 0.00 | 0.00 | 0.00 | 79 | 1007.2 |
| 20260505070045 | 48 | 108 | 0.9 | 4.3 | 0.00 | 0.00 | 0.00 | 77 | 1007.3 |
| 20260505064552 | 49 | 205 | 0.0 | 1.7 | 0.00 | 0.00 | 0.00 | 76 | 1007.0 |
| 20260505063038 | 50 | 341 | 2.6 | 3.5 | 0.00 | 0.00 | 0.00 | 75 | 1007.1 |
| 20260505061541 | 51 | 150 | 0.0 | 0.9 | 0.00 | 0.00 | 0.00 | 73 | 1006.9 |
| 20260505060034 | 51 | 188 | 0.0 | 1.7 | 0.00 | 0.00 | 0.00 | 72 | 1006.9 |
| 20260505054534 | 51 | 326 | 0.9 | 1.7 | 0.00 | 0.00 | 0.00 | 71 | 1006.6 |
| 20260505053032 | 53 | 139 | 0.0 | 1.7 | 0.00 | 0.00 | 0.00 | 67 | 1006.6 |
| 20260505041534 | 59 | 126 | 0.0 | 2.6 | 0.00 | 0.00 | 0.00 | 54 | 1006.3 |
| 20260505040030 | 61 | 132 | 1.7 | 2.6 | 0.00 | 0.00 | 0.00 | 51 | 1006.2 |
| 20260505034533 | 63 | 279 | 0.0 | 1.7 | 0.00 | 0.00 | 0.00 | 49 | 1005.9 |
| 20260505033031 | 65 | 280 | 1.7 | 3.5 | 0.00 | 0.00 | 0.00 | 42 | 1005.7 |
| 20260505031528 | 66 | 266 | 0.9 | 2.6 | 0.00 | 0.00 | 0.00 | 41 | 1005.4 |
| 20260505030027 | 67 | 273 | 0.9 | 4.3 | 0.00 | 0.00 | 0.00 | 38 | 1005.2 |
| 20260505024538 | 70 | 348 | 1.7 | 7.0 | 0.00 | 0.00 | 0.00 | 34 | 1004.9 |
| 20260505023026 | 71 | 12 | 5.2 | 12.2 | 0.00 | 0.00 | 0.00 | 32 | 1004.8 |
| 20260505021525 | 72 | 14 | 5.2 | 14.8 | 0.00 | 0.00 | 0.00 | 30 | 1004.7 |
| 20260505020025 | 73 | 42 | 5.2 | 10.4 | 0.00 | 0.00 | 0.00 | 31 | 1004.5 |
| 20260505014527 | 74 | 41 | 6.1 | 12.2 | 0.00 | 0.00 | 0.00 | 29 | 1004.4 |
| 20260505013024 | 76 | 308 | 1.7 | 9.6 | 0.00 | 0.00 | 0.00 | 26 | 1004.3 |
| 20260505011522 | 76 | 340 | 5.2 | 13.9 | 0.00 | 0.00 | 0.00 | 26 | 1004.4 |
| 20260505010021 | 76 | 314 | 7.8 | 16.5 | 0.00 | 0.00 | 0.00 | 25 | 1004.3 |
| 20260505004522 | 78 | 27 | 7.0 | 10.4 | 0.00 | 0.00 | 0.00 | 25 | 1004.3 |
| 20260505003021 | 77 | 311 | 5.2 | 10.4 | 0.00 | 0.00 | 0.00 | 24 | 1004.2 |
| 20260505001520 | 78 | 302 | 3.5 | 8.7 | 0.00 | 0.00 | 0.00 | 22 | 1004.2 |
| 20260505000028 | 78 | 301 | 6.1 | 13.9 | 0.00 | 0.00 | 0.00 | 22 | 1004.1 |
| 20260504234520 | 78 | 337 | 6.1 | 12.2 | 0.00 | 0.00 | 0.00 | 22 | 1004.0 |
| 20260504233022 | 78 | 326 | 5.2 | 14.8 | 0.00 | 0.00 | 0.00 | 21 | 1004.1 |
| 20260504231525 | 79 | 280 | 4.3 | 10.4 | 0.00 | 0.00 | 0.00 | 20 | 1004.1 |
| 20260504230016 | 79 | 310 | 4.3 | 10.4 | 0.00 | 0.00 | 0.00 | 21 | 1004.1 |
| 20260504224514 | 78 | 283 | 4.3 | 12.2 | 0.00 | 0.00 | 0.00 | 22 | 1004.3 |
| 20260504223010 | 79 | 335 | 5.2 | 11.3 | 0.00 | 0.00 | 0.00 | 22 | 1004.3 |
| 20260504221508 | 78 | 322 | 2.6 | 12.2 | 0.00 | 0.00 | 0.00 | 24 | 1004.4 |
| 20260504214505 | 77 | 66 | 4.3 | 12.2 | 0.00 | 0.00 | 0.00 | 24 | 1004.7 |
| 20260504213007 | 79 | 293 | 4.3 | 9.6 | 0.00 | 0.00 | 0.00 | 28 | 1004.7 |